SKYSAT-C10 (42988 NORAD) Tracking and Keplerian Element Data

This shows tracking and keplerian element data for the satellite.

Feedback or suggestion? Click here.




ElementValue
Catalog42988
NameSKYSAT-C10
Epoch Orbit27396
Epoch Day269.61400738
Epoch Year2022
RAAN28.212
Inclination97.3064
Eccentricity0.0002647
Argument of Perigee127.7163
Mean Anonmoly232.4322
Mean Motion15.37931927
Decay Rate9.751E-05
L11 42988U 17068B 22269.61400738 .00009751 00000+0 26356-3 0 9999
L22 42988 97.3064 28.2120 0002647 127.7163 232.4322 15.37931927273965

Live tracking and technical data element details for SKYSAT-C10 (NORAD 42988). SKYSAT-C10 can be tracked NOW for your location showing map with azimuth and elevation plus other details from your city location.

Track the satellite on the map from your city or location and see movement details for azimuth, elevation, latitude, longitude, range, height, and movement on the map or in text.







IsCatalogInMostPopularTable: catalog: 42988, numindb: 662
Update: records affected: 1



GetName: 42988 SKYSAT-C10

Hit Count: updated at: Fri, 30 Sep 2022 03:21:42 GMT